Wind_Speed
7 6 8 9 9 11 12 11 9 9 10 9 9 8 9 8 7 8 11 13 12 12 13 13 10 10 13 12 12 9 8 10 9 9 8 8 9 8 9 10 10 10 8 10 13 16 21 25 27 28 28 26 24 23 26 28 28 29 29 27 23 22 21 22 21 18 18 18 17 16 15 13 11 10 11 11 11 12 10 9 11 13 15 13 9 9
7 9 9 9 9 11 13 12 9 11 14 11 8 8 9 9 9 10 11 13 12 9 10 15 11 9 13 12 12 13 11 11 10 10 9 9 9 7 9 10 10 9 8 10 12 14 18 21 23 26 27 25 24 24 26 27 27 28 29 27 24 23 23 23 22 20 18 17 18 18 16 16 14 12 13 14 13 13 13 13 15 17 17 15 12 11
9 10 9 10 10 10 12 13 11 12 14 11 7 6 6 9 9 10 14 14 10 8 9 15 11 7 12 10 10 11 10 10 10 11 11 11 11 9 10 11 11 10 8 10 11 14 18 21 23 25 26 25 25 25 24 24 25 27 27 26 25 24 23 23 22 21 20 17 15 16 16 16 15 15 15 17 17 16 16 17 17 17 16 13 12 11
8 8 10 11 10 11 11 13 13 11 10 10 7 5 4 7 8 8 13 13 9 9 9 13 6 6 9 7 6 6 7 9 7 8 9 9 11 11 10 10 11 11 11 11 9 10 16 21 22 24 24 25 25 23 23 23 24 26 26 26 26 25 23 22 21 21 20 18 15 16 16 15 16 17 17 19 18 18 18 16 14 13 12 11 11 11
7 7 11 12 11 13 12 13 15 10 8 10 9 7 6 8 9 8 9 8 7 8 10 13 6 3 7 9 8 5 6 9 9 9 8 7 8 9 9 9 10 10 10 11 10 8 11 15 19 22 24 24 24 22 22 22 22 24 24 24 26 26 22 20 21 21 21 20 19 18 17 17 18 19 19 19 18 17 17 14 12 11 10 9 10 10
8 9 13 15 13 14 13 12 15 11 6 8 10 10 10 12 11 10 10 6 5 5 8 15 6 1 2 4 6 7 8 8 9 10 10 9 9 9 10 11 12 11 9 9 10 9 8 10 15 20 23 23 23 22 22 22 22 22 23 23 24 23 20 19 21 23 23 23 22 21 21 20 20 19 17 18 19 18 16 14 12 11 9 9 9 9
8 12 15 15 14 15 14 11 14 15 7 6 9 10 14 16 13 10 13 9 5 5 8 12 8 2 1 4 5 4 9 10 9 10 10 10 10 9 9 11 12 12 10 10 10 10 9 10 13 16 19 22 23 23 24 23 21 21 22 22 22 21 20 21 22 23 24 25 24 24 23 22 21 19 17 17 18 18 16 14 12 11 9 8 8 8
10 16 16 16 15 14 13 10 13 15 9 6 9 10 12 16 15 13 11 8 5 5 7 9 9 5 3 5 9 6 8 9 9 10 10 10 11 11 10 12 13 12 11 11 11 10 10 10 11 14 17 20 23 24 25 24 21 20 23 22 19 19 21 22 22 22 24 25 25 24 23 22 22 22 21 20 19 17 16 16 14 13 11 8 6 5
10 14 17 18 15 11 11 10 11 14 11 8 9 11 11 12 14 13 8 5 4 6 6 7 8 6 4 7 9 7 8 8 10 12 12 12 13 13 13 13 13 13 13 13 12 11 11 11 13 15 17 20 22 24 25 23 21 21 22 21 18 18 21 21 22 23 23 23 23 24 25 25 24 23 23 22 20 19 18 18 15 13 12 9 6 5
9 12 16 17 13 10 11 12 12 14 12 8 10 11 11 11 11 9 5 4 2 6 7 9 8 5 2 6 7 7 7 9 10 11 12 13 14 14 14 14 14 13 13 13 13 12 14 17 18 18 19 20 21 22 22 22 21 21 20 20 19 19 20 19 19 20 20 21 22 24 26 26 25 24 24 23 22 21 19 18 15 12 10 9 8 7
11 10 12 13 12 9 10 12 13 12 10 9 10 10 10 9 5 4 4 1 1 3 6 9 11 8 4 5 8 8 12 14 12 11 12 13 14 14 13 13 14 14 13 13 13 13 16 21 21 20 20 21 20 20 21 22 22 21 19 20 21 20 19 18 17 18 19 20 21 23 25 26 25 25 25 24 22 20 17 16 13 11 11 11 11 10
13 11 9 10 12 11 10 11 13 12 10 10 9 7 6 4 2 3 4 1 2 3 6 7 11 9 5 5 9 12 14 16 15 15 17 17 15 14 12 12 13 13 13 13 13 13 15 17 18 20 20 20 22 21 22 23 22 21 20 22 22 20 18 18 17 19 21 22 23 23 24 24 24 24 23 23 21 19 17 15 14 13 14 13 12 12
10 10 9 9 13 14 10 9 10 11 10 10 8 5 5 2 2 4 4 2 3 3 7 10 11 7 5 9 16 17 12 14 15 16 19 19 17 15 13 12 11 11 12 12 12 12 12 13 15 18 19 21 22 22 23 24 23 22 23 23 22 19 18 20 21 22 23 24 24 24 24 24 23 22 22 21 20 18 17 16 16 16 14 12 11 12
6 9 12 11 11 13 11 8 8 8 9 11 8 5 5 5 4 6 3 2 2 4 7 8 9 5 2 6 19 21 16 17 17 16 19 19 18 17 14 13 12 11 12 11 12 12 11 12 16 18 19 20 21 23 25 25 24 24 24 24 23 22 21 23 23 22 22 22 23 23 23 23 23 23 22 20 19 18 17 16 16 15 13 12 11 10
5 7 11 10 8 12 12 8 8 6 6 9 8 4 4 4 5 4 2 3 3 3 4 0 4 4 3 6 18 20 16 17 15 14 18 17 16 16 13 13 13 12 12 11 12 12 12 15 18 18 19 20 22 25 26 24 25 26 25 25 26 24 23 22 22 21 21 21 21 21 22 22 22 22 22 21 19 17 16 13 12 10 10 11 11 9
6 5 9 9 8 15 14 8 10 8 5 7 7 4 5 4 4 4 3 4 4 1 2 1 1 2 2 5 15 16 13 14 14 14 17 16 15 15 13 13 13 12 12 12 12 12 13 17 20 19 19 21 24 25 24 24 27 28 27 26 26 24 23 22 22 22 22 21 21 20 20 21 21 21 21 21 18 16 14 11 10 10 10 11 11 11
5 4 12 10 7 14 13 7 10 9 5 6 5 5 5 4 4 5 2 2 4 2 3 3 1 2 3 2 6 15 16 15 15 16 18 17 16 16 14 13 13 12 13 13 12 13 14 17 20 20 21 23 24 24 23 25 28 28 27 27 26 24 23 22 23 23 23 22 21 20 19 19 19 19 19 19 18 16 13 12 12 12 12 12 12 12
3 4 12 11 5 5 3 2 5 5 5 6 5 4 4 4 2 5 3 1 3 2 3 4 3 0 2 2 3 8 16 16 15 17 18 17 16 15 13 13 13 14 14 13 13 13 14 17 20 21 22 24 24 24 24 26 27 27 27 27 26 24 23 22 22 22 22 22 21 21 20 18 17 16 17 17 17 16 14 14 14 14 14 13 13 13
4 3 5 8 6 1 2 3 5 6 5 5 6 6 4 4 3 1 3 3 4 3 3 5 6 3 5 6 4 7 14 16 16 17 19 18 16 13 12 13 14 15 14 13 13 12 12 16 20 23 23 25 25 25 26 26 26 26 26 25 25 24 23 22 21 20 20 20 20 21 20 18 17 17 18 19 19 18 17 17 16 16 15 15 14 14
5 4 1 4 7 4 2 2 3 5 8 6 6 6 4 4 3 2 3 4 4 5 2 4 5 4 3 9 13 14 15 18 18 17 18 19 16 13 13 13 13 14 13 12 13 12 12 16 22 25 25 26 27 26 26 26 26 26 25 24 24 23 22 22 21 20 20 20 21 21 20 19 19 21 21 21 20 19 18 17 17 17 17 16 16 15
4 5 3 5 7 7 5 5 6 5 6 6 4 5 5 3 3 2 1 2 4 4 4 3 3 5 5 7 13 17 19 21 21 19 18 17 15 14 15 15 14 13 13 12 13 13 14 17 23 26 26 27 28 26 26 27 27 26 25 24 23 22 22 22 21 21 21 21 21 21 21 21 22 23 23 22 20 20 19 18 18 18 17 17 18 17
3 4 5 5 5 7 6 5 8 7 7 8 4 3 6 5 4 3 2 3 3 3 4 5 4 6 4 4 9 16 19 19 21 22 18 16 17 17 16 15 15 14 13 13 13 13 14 17 22 25 26 27 27 25 26 27 27 26 25 24 23 21 21 20 20 21 21 21 22 21 21 22 22 22 21 21 21 21 20 19 19 18 18 19 18 18
4 5 5 5 4 7 7 7 11 10 7 8 5 3 5 5 5 5 3 4 3 2 3 4 3 6 6 4 6 13 19 19 21 22 18 15 17 17 16 15 14 14 14 14 14 13 15 18 22 25 26 26 25 25 26 27 26 25 25 24 22 21 20 20 20 22 23 24 23 22 22 22 22 21 20 20 21 21 20 20 19 19 20 20 19 17
2 4 6 4 2 6 7 7 10 10 5 4 5 5 4 5 7 5 4 4 2 3 3 3 3 5 6 3 3 9 17 19 17 18 18 15 13 15 16 15 14 13 14 14 13 13 16 20 21 23 23 23 24 26 26 26 25 25 25 23 21 21 21 21 21 23 24 24 23 22 22 22 21 22 21 21 21 22 21 20 20 20 20 20 19 18
1 2 6 5 2 4 6 5 7 8 5 2 3 5 4 6 11 8 3 1 2 4 5 6 3 6 6 3 9 10 12 15 14 14 18 16 13 13 14 13 14 14 14 15 14 14 16 17 17 19 21 22 24 25 25 25 25 25 24 22 23 24 22 20 22 24 24 22 22 23 22 21 22 22 21 21 22 22 21 21 21 21 20 21 20 19
3 2 5 5 4 6 6 4 3 3 2 1 2 5 6 6 10 10 3 0 3 5 4 6 3 5 4 7 13 13 12 13 13 13 14 15 14 13 12 13 14 14 15 16 16 15 15 15 15 18 21 22 23 24 25 25 24 24 25 25 26 24 22 21 23 24 23 23 24 24 23 22 22 22 22 23 23 22 21 21 21 20 20 19 19 18
2 2 4 6 5 5 5 4 3 3 3 3 4 4 5 5 6 7 4 4 4 2 0 3 6 4 3 9 13 15 15 14 14 13 13 13 14 13 12 13 14 14 15 16 15 14 14 14 15 18 21 23 23 24 25 24 23 25 27 27 26 24 23 23 24 25 25 24 25 24 23 23 23 23 24 23 23 23 22 22 21 21 20 19 19 18
2 1 4 5 3 5 6 8 8 7 6 5 5 6 7 7 4 5 5 6 5 4 2 3 9 9 4 7 11 14 15 15 14 14 13 14 14 13 13 13 14 14 14 15 15 14 14 13 14 17 21 22 23 23 24 23 24 27 29 27 25 24 24 24 24 25 24 24 25 24 23 24 24 24 24 23 24 24 23 23 22 21 21 20 19 19
3 1 2 2 4 6 6 9 11 10 8 7 7 8 9 9 6 5 7 5 3 6 4 5 10 9 5 6 10 12 14 15 15 14 14 14 14 14 14 15 15 15 15 16 16 14 15 14 13 15 20 21 22 23 23 23 25 27 27 27 26 25 26 25 25 24 24 24 25 24 23 24 24 24 23 23 24 24 24 24 23 22 22 21 20 18
3 1 2 2 3 7 7 10 14 14 10 7 5 6 6 8 8 6 7 3 3 6 9 9 10 8 5 6 9 10 11 13 12 11 11 13 15 16 16 16 16 15 16 17 16 14 14 14 15 18 20 20 22 24 23 23 26 28 28 28 27 27 28 27 25 24 25 25 25 24 24 25 25 24 23 23 24 24 23 23 23 23 23 21 19 17
3 1 2 5 4 7 6 3 9 13 12 7 6 7 6 6 5 4 3 3 4 4 7 11 11 5 1 6 10 10 10 13 13 12 12 12 14 15 15 15 16 15 15 16 16 15 14 14 15 19 21 21 24 26 25 26 28 28 28 28 27 27 28 27 26 26 26 26 25 25 25 25 26 26 25 25 24 24 24 23 22 23 22 21 19 17
3 2 2 6 5 6 3 5 2 8 12 8 7 8 8 6 3 2 2 3 5 4 5 8 9 5 3 6 11 10 12 15 14 14 13 12 14 15 15 16 16 15 15 15 15 16 16 15 15 17 21 25 28 28 26 28 30 28 28 28 26 27 28 27 27 27 26 26 25 26 26 26 27 26 25 25 25 24 24 23 23 22 22 21 20 18
3 3 2 4 2 5 0 7 5 4 9 6 6 6 6 6 4 1 2 2 4 6 6 5 6 8 10 11 11 10 11 14 14 13 13 13 14 14 14 15 15 15 16 16 16 17 17 17 18 20 25 28 30 29 26 26 28 28 28 28 26 27 29 28 28 27 26 26 26 26 27 27 27 26 25 25 24 24 24 24 23 23 22 21 20 19
3 4 1 1 1 4 1 7 6 5 5 5 5 1 1 3 3 2 3 4 5 5 6 5 7 11 13 13 15 14 12 12 12 11 13 14 14 13 13 13 13 14 15 15 17 17 16 18 21 24 29 31 30 30 28 27 28 28 28 28 27 29 30 29 28 27 26 26 27 27 28 27 27 27 26 26 25 25 24 24 23 23 22 21 20 18
4 4 1 0 2 2 3 8 5 1 3 5 4 2 5 6 5 2 3 4 6 6 8 10 12 14 12 10 12 13 11 11 11 10 12 14 14 15 15 13 13 15 16 16 16 15 16 21 25 26 27 28 29 30 30 30 31 30 27 27 28 30 30 29 28 27 27 28 28 28 28 28 28 28 27 27 26 25 25 24 23 23 22 21 20 18
3 3 1 1 1 1 3 5 2 3 4 5 4 3 4 5 7 7 5 7 5 6 8 11 12 13 12 10 11 12 12 11 9 8 10 12 12 14 15 15 16 16 16 16 16 16 19 26 31 32 29 27 29 32 30 30 32 31 28 28 28 28 29 29 28 28 28 28 28 28 29 29 29 29 28 28 27 26 25 24 24 23 22 21 20 19
2 2 1 2 1 2 2 2 1 1 4 6 5 2 3 4 3 4 1 6 6 3 6 11 13 11 11 13 13 13 13 11 7 5 9 11 12 13 14 15 15 15 16 18 21 24 27 30 32 32 31 31 32 31 30 30 32 32 32 31 29 26 26 27 27 28 28 28 28 29 30 29 29 29 29 28 27 26 25 24 23 22 21 21 20 19
3 2 2 2 1 2 4 2 1 2 2 4 6 6 1 5 4 4 3 5 6 4 1 8 14 13 11 12 14 15 13 10 6 6 9 12 12 13 13 13 14 17 20 22 24 25 28 30 30 29 31 32 31 29 30 33 34 34 32 30 28 26 23 23 26 27 28 28 29 30 29 29 29 29 28 27 26 25 24 23 23 21 20 20 19 17
6 3 2 4 2 2 4 1 0 2 3 6 7 7 2 2 3 5 4 4 6 6 6 3 11 14 14 14 14 12 10 7 5 7 10 12 12 14 14 14 15 20 24 28 28 26 26 28 29 28 29 30 27 29 34 37 36 34 30 28 29 29 25 23 25 27 28 28 29 30 29 29 29 28 28 27 25 25 24 23 23 21 19 19 20 19
5 1 3 4 1 1 3 1 1 1 4 6 5 5 3 4 7 7 3 6 6 7 8 3 8 12 15 16 14 10 8 8 8 9 10 13 13 14 17 17 17 21 24 27 30 31 30 29 29 28 28 27 28 32 36 36 34 31 27 27 29 31 30 26 25 27 29 29 29 29 29 29 29 28 28 26 25 24 23 23 22 20 19 19 19 18
1 1 2 3 1 0 2 2 1 1 5 5 2 5 4 6 8 4 6 7 5 6 7 5 5 9 12 13 12 10 9 9 9 10 13 14 13 14 17 20 23 25 26 28 30 31 30 29 29 29 28 28 31 34 34 34 31 28 27 27 27 29 30 28 27 28 30 29 29 29 28 28 29 28 27 25 24 24 23 22 22 21 20 19 17 15
1 1 1 3 2 0 2 2 0 2 4 4 1 3 6 6 2 4 6 5 3 4 7 7 3 4 10 12 10 8 7 8 13 17 16 16 15 14 15 19 22 24 27 30 30 30 28 27 27 27 27 29 31 32 33 33 30 27 27 27 26 28 31 31 30 31 30 29 29 29 28 28 28 28 26 25 25 25 23 21 21 21 21 19 17 15
2 1 0 2 2 1 0 0 1 2 4 1 4 4 4 4 5 6 3 3 4 5 6 7 6 1 8 13 11 7 8 11 15 17 16 15 16 16 16 19 21 21 25 28 29 29 29 27 26 27 28 29 30 31 32 32 29 27 27 26 27 31 33 32 32 31 30 30 29 28 28 28 28 27 26 25 24 23 21 20 21 21 20 18 16 16
2 2 1 2 1 2 1 1 2 4 4 2 5 2 2 3 4 2 2 3 5 6 6 5 7 5 6 12 9 8 12 13 14 14 14 14 15 16 16 18 21 23 25 27 28 30 30 29 28 29 29 30 31 31 32 30 28 28 28 29 31 34 33 32 32 31 30 30 29 28 28 28 27 26 25 25 24 23 21 21 21 20 18 16 16 16
2 4 4 1 0 1 4 4 3 2 2 4 5 3 3 2 2 4 5 4 4 5 4 4 6 6 1 9 10 11 13 14 14 15 14 15 15 16 17 18 22 25 26 27 29 30 30 30 30 29 29 30 32 31 30 30 31 31 30 31 33 34 33 32 32 31 30 29 29 29 29 27 27 26 25 24 24 22 21 21 21 21 20 18 17 16
2 3 4 2 2 2 1 0 2 4 4 5 5 4 4 4 4 5 5 4 3 3 3 4 5 6 6 9 11 12 12 14 15 14 13 15 15 15 17 18 22 27 28 28 29 30 30 29 29 29 28 29 30 30 30 31 34 33 32 33 33 34 34 33 32 31 30 30 30 29 28 28 27 26 24 23 23 22 22 22 21 21 20 19 17 16
3 2 2 2 3 2 2 3 4 4 3 2 4 5 5 4 4 4 3 2 3 4 4 5 5 6 9 11 11 12 12 14 16 14 12 14 15 15 16 16 20 26 28 29 29 30 29 28 27 27 27 27 28 30 31 32 33 34 34 34 34 34 33 32 32 31 31 31 30 29 29 29 28 26 25 23 22 21 20 19 18 18 18 17 16 15
3 4 3 1 2 4 2 2 1 2 4 3 4 4 3 3 4 5 4 2 3 5 4 5 6 6 8 10 12 14 12 12 14 14 12 12 13 14 14 16 21 25 28 30 31 30 29 28 27 27 26 26 28 30 31 31 32 34 35 35 34 34 33 33 33 32 31 30 30 30 30 30 29 27 25 23 21 19 18 17 17 17 16 15 14 15
2 2 2 2 3 4 2 2 3 4 5 6 5 4 3 4 5 5 5 4 4 4 6 4 4 5 7 9 12 14 14 11 12 14 14 12 12 12 14 18 24 26 27 30 31 30 29 28 28 28 28 27 29 30 30 30 32 35 36 36 34 34 35 34 33 31 30 30 31 31 31 30 27 26 24 22 21 19 18 17 17 16 16 14 13 13
1 2 2 3 3 2 1 3 2 0 0 2 2 2 2 4 5 5 5 4 4 4 5 5 5 4 6 10 12 14 14 12 11 13 13 12 11 13 16 21 24 25 27 29 29 29 30 29 30 30 29 28 30 31 31 31 34 36 36 35 35 36 37 35 32 31 30 31 32 32 30 27 25 24 23 23 24 23 20 18 16 16 16 14 13 12
1 1 1 3 3 4 6 6 4 3 3 3 2 2 1 3 4 4 3 2 3 4 4 4 7 7 7 9 10 13 14 12 12 13 12 10 12 17 20 23 24 24 27 29 28 28 29 29 30 31 30 29 31 32 32 33 35 35 35 35 37 38 37 35 33 31 31 32 33 32 28 26 26 26 25 24 24 22 21 20 17 15 14 14 12 11
Wind_Direction
200 212 221 208 203 201 210 223 217 221 233 223 202 202 210 215 239 224 212 222 202 185 195 198 199 169 152 155 150 147 135 126 134 138 137 137 131 135 141 141 147 150 146 143 144 142 140 142 145 145 142 145 149 153 155 156 157 160 164 164 154 151 158 161 158 156 148 139 144 148 143 141 141 137 136 132 133 134 129 118 112 102 89 82 79 82
206 219 219 207 203 200 208 221 220 220 234 239 211 200 204 205 232 237 229 225 196 178 189 195 205 174 157 158 151 147 141 146 154 150 150 144 135 138 143 144 146 143 140 141 141 138 138 141 142 140 138 142 146 153 159 158 158 160 164 162 152 154 161 160 157 156 155 154 157 151 143 143 141 137 134 126 120 116 107 102 104 99 94 95 95 91
210 223 210 202 204 204 206 212 223 227 231 242 229 215 210 196 213 234 243 239 196 177 184 190 202 164 151 150 146 150 145 152 161 154 156 150 142 147 150 150 146 141 146 148 142 141 144 145 144 140 138 142 147 153 158 157 156 158 161 161 156 159 162 158 156 158 159 163 161 149 143 145 140 135 130 119 111 103 95 95 100 100 101 104 94 83
204 215 201 204 204 205 205 202 217 234 233 239 229 226 242 212 200 210 242 246 195 174 166 168 168 115 133 131 129 150 130 130 141 137 148 151 147 152 155 150 142 141 147 145 137 141 149 148 146 143 140 141 146 151 156 155 156 158 162 163 162 164 163 157 156 156 156 158 152 140 140 142 134 130 126 118 107 99 98 99 101 96 91 91 82 75
198 188 194 208 205 205 207 197 207 224 233 237 229 221 240 240 222 202 227 238 187 173 134 123 98 78 141 142 139 144 118 121 128 128 138 145 137 134 135 132 127 132 140 139 133 136 149 149 145 142 139 139 144 151 156 156 157 160 164 166 165 166 162 155 154 153 150 150 146 139 138 138 129 124 126 122 112 107 107 101 92 84 77 79 77 74
200 182 189 206 204 203 209 202 204 211 227 241 233 222 232 248 245 218 217 208 163 190 144 122 108 308 172 136 140 138 130 132 133 140 145 141 136 131 129 132 130 133 132 127 132 140 147 145 140 138 136 138 143 151 157 157 159 163 167 168 166 164 160 153 152 152 151 149 150 147 142 137 129 122 121 121 117 113 110 101 94 89 85 85 85 84
195 186 190 203 202 201 209 212 207 204 210 237 226 217 230 245 256 244 226 208 163 194 183 145 136 177 333 317 272 169 143 148 143 144 147 141 143 143 139 139 139 139 132 127 134 141 146 144 140 137 135 141 147 152 158 159 159 165 169 169 166 162 157 155 154 156 155 152 153 152 146 141 135 124 116 118 120 116 112 108 102 97 94 91 91 91
192 188 189 198 201 202 207 212 205 198 202 232 225 221 230 238 252 256 241 225 180 164 194 172 131 121 165 226 238 202 139 145 147 147 153 149 147 149 149 147 145 143 139 137 138 141 147 144 139 139 141 148 153 153 157 160 159 162 165 167 168 162 156 156 157 157 156 154 153 150 142 138 134 124 118 121 122 118 116 111 104 98 93 91 92 88
200 194 186 192 202 204 205 210 200 194 202 225 228 231 238 237 244 253 259 260 192 150 204 202 130 111 175 194 198 173 149 160 161 160 163 157 151 154 157 152 147 145 143 140 139 141 145 142 141 145 148 153 155 153 153 156 157 158 161 166 169 164 158 156 155 155 155 153 152 149 139 130 127 123 123 126 123 120 117 110 105 99 90 85 83 75
210 207 188 189 202 203 199 206 207 200 199 211 227 236 244 240 241 251 265 283 207 170 205 207 165 130 148 185 180 159 167 182 170 166 166 160 158 160 159 153 148 146 146 144 144 146 147 148 150 150 149 151 153 151 147 149 155 156 160 166 165 161 159 156 153 154 153 150 148 146 137 128 127 129 128 126 123 120 116 108 103 97 91 83 70 65
208 210 194 189 199 200 190 199 214 211 191 196 224 240 245 243 254 274 257 277 62 228 226 197 176 155 137 193 188 177 186 183 167 160 161 160 160 158 156 154 152 150 150 148 147 145 144 146 148 147 146 147 149 147 144 148 155 156 159 162 157 154 153 148 144 141 139 139 138 136 133 129 131 133 129 123 120 117 109 100 97 95 95 89 77 72
205 202 200 186 186 195 191 192 210 217 200 199 213 221 236 253 309 295 272 157 130 257 259 206 180 168 162 195 199 202 195 175 165 162 162 161 157 153 156 156 154 150 147 147 144 140 140 141 141 142 144 145 145 145 145 150 155 154 152 150 146 144 143 140 136 130 128 130 130 130 130 129 130 129 124 118 114 109 102 98 101 104 102 97 88 78
207 197 198 179 178 194 197 183 201 215 207 208 208 190 192 195 212 231 240 211 189 244 243 199 183 190 187 181 190 200 192 170 171 167 160 159 152 152 159 154 149 147 144 145 143 141 142 140 142 146 146 146 147 146 145 148 149 145 142 139 137 136 135 134 132 128 126 126 128 130 129 127 126 123 119 115 112 108 107 109 112 109 104 96 87 81
196 194 196 182 174 192 202 182 190 207 196 204 207 172 167 167 187 214 202 166 193 260 251 192 170 204 257 171 185 189 182 173 174 163 155 155 151 153 157 149 145 147 146 145 143 143 141 141 146 149 147 147 146 144 144 145 143 139 137 134 131 130 131 131 129 128 126 125 127 130 129 127 125 121 117 116 116 115 114 114 113 106 98 91 87 86
183 190 192 188 166 182 205 196 180 185 175 202 210 170 179 182 170 194 165 140 190 246 283 256 154 205 241 190 185 184 178 168 162 151 148 147 145 147 149 146 147 148 145 142 142 142 140 144 147 145 143 144 143 143 144 142 139 136 134 132 130 130 132 133 132 131 128 126 128 130 131 131 128 124 122 119 120 122 120 118 115 104 93 93 92 89
192 178 184 197 167 174 201 204 176 174 167 200 210 187 221 220 150 151 157 152 160 181 307 315 179 215 242 180 170 168 164 156 147 140 141 142 143 145 148 151 150 146 143 144 143 141 143 146 144 140 140 141 142 144 143 139 136 135 133 133 133 133 135 136 135 133 131 130 130 131 132 132 130 128 125 121 118 119 123 127 123 113 107 106 99 88
187 174 185 189 162 174 193 199 181 174 161 191 210 200 228 234 137 121 152 128 99 111 270 259 247 354 6 35 145 155 154 152 147 141 142 146 147 148 154 155 151 145 145 146 144 143 145 144 141 140 141 142 144 144 141 138 137 137 136 136 135 134 134 135 133 132 132 131 130 131 132 133 133 133 130 127 123 121 125 129 125 120 116 111 102 93
161 167 182 166 121 164 199 279 226 197 160 174 202 210 227 239 176 114 128 92 95 138 268 256 226 239 103 14 317 160 149 147 148 142 142 147 150 153 155 153 149 145 144 145 142 142 141 140 140 142 142 143 145 142 139 138 139 138 137 137 135 134 134 136 135 133 132 130 127 126 126 126 128 129 130 132 129 126 128 128 126 123 117 110 104 100
149 118 167 145 113 72 335 328 286 279 244 192 177 193 188 187 214 108 126 156 155 164 295 276 240 228 150 158 206 182 150 142 144 141 144 153 157 155 150 148 146 144 144 144 143 142 141 140 142 142 142 142 141 139 138 138 137 136 135 134 133 133 134 135 134 132 131 130 127 124 122 121 123 124 125 127 129 130 130 129 128 124 118 112 106 103
144 105 129 155 136 143 258 222 221 269 258 217 173 193 194 157 166 160 148 160 160 165 220 261 245 251 200 167 170 168 151 143 145 145 152 161 160 152 148 149 148 147 148 147 146 145 143 142 142 142 143 141 139 139 138 136 135 134 132 131 131 130 131 132 131 131 131 131 128 127 125 126 131 130 128 129 132 133 131 128 125 121 115 111 106 103
121 111 145 173 157 166 208 214 198 213 221 205 185 192 198 177 134 133 219 189 148 152 179 193 239 265 240 180 163 156 151 151 151 152 159 162 154 149 151 151 152 153 151 148 147 146 144 143 142 142 141 139 138 139 137 135 134 134 133 132 131 130 132 134 133 132 132 132 131 131 129 128 131 131 129 131 132 131 128 124 122 118 114 110 105 101
124 113 143 170 182 189 204 204 202 218 207 186 190 195 185 176 131 112 283 252 156 145 164 163 216 272 267 197 161 148 151 157 154 155 162 158 150 152 155 155 155 154 149 147 147 145 144 143 142 140 138 139 139 138 136 135 135 136 135 135 134 135 137 138 136 135 136 136 135 132 129 128 130 131 131 129 128 127 125 123 121 117 113 108 104 100
130 115 144 166 180 187 199 204 210 230 217 171 189 218 168 160 147 131 183 227 206 206 184 143 188 260 279 245 173 146 151 158 156 155 156 152 152 154 153 152 152 150 145 144 145 143 141 141 141 139 138 140 139 137 136 135 136 136 135 135 137 138 139 138 137 138 137 134 132 130 129 128 129 132 131 128 127 126 124 121 118 115 110 105 102 100
95 109 149 152 142 175 191 206 217 235 233 163 200 218 161 171 183 163 171 194 199 230 201 125 167 252 287 299 116 131 146 151 151 149 144 143 149 150 149 148 147 144 141 141 142 141 139 139 140 139 139 139 137 136 136 136 136 135 135 139 139 138 138 135 134 136 133 129 128 129 129 128 129 131 131 130 130 127 124 121 117 112 108 103 99 95
166 117 140 136 103 161 181 201 219 231 232 183 204 205 194 184 181 190 242 272 266 236 172 130 169 253 285 47 84 98 127 136 136 138 137 139 144 147 147 145 143 143 141 140 141 140 139 140 142 141 139 138 137 137 137 137 138 139 142 143 138 139 142 137 133 134 134 131 129 128 129 130 131 132 131 130 129 126 124 122 119 115 110 105 99 92
181 131 124 144 150 165 181 194 210 222 214 298 273 200 200 191 178 188 205 124 257 251 156 124 175 250 309 58 92 108 118 119 122 126 130 135 139 145 147 145 145 145 143 143 143 142 142 141 142 140 139 139 138 137 138 141 145 144 143 140 137 141 146 140 137 139 139 137 134 132 133 133 133 132 130 127 125 124 123 120 118 115 110 105 98 91
152 151 132 144 155 175 178 163 165 172 172 230 270 224 212 218 185 168 163 178 201 237 169 151 153 152 57 66 101 125 125 118 122 126 130 138 143 150 151 147 147 147 145 144 142 141 142 141 141 140 139 140 139 140 144 148 147 141 138 138 141 145 145 142 141 141 140 138 135 134 135 134 134 131 128 127 125 123 121 118 116 112 108 104 98 92
86 149 150 144 179 204 175 155 166 183 193 211 229 226 228 237 204 142 173 204 162 124 249 203 134 130 125 102 117 131 128 127 135 140 145 149 149 151 148 143 144 146 145 142 141 143 142 140 139 137 138 141 141 144 148 147 143 138 137 141 146 148 146 145 143 141 141 138 135 136 136 135 134 132 130 129 128 126 123 120 118 114 111 107 101 96
88 148 164 162 249 241 202 175 170 178 202 213 205 203 215 237 242 179 185 212 118 122 195 181 130 130 139 121 125 134 134 137 144 147 148 148 147 146 144 144 146 148 146 144 144 145 142 141 139 136 140 143 143 142 141 139 139 139 141 146 149 149 149 149 147 145 144 140 137 138 138 136 135 134 132 130 127 125 122 120 118 115 113 110 104 98
92 25 20 51 303 277 241 194 170 169 194 216 205 202 212 232 242 213 189 190 99 133 160 151 126 120 129 129 125 125 127 130 132 135 141 144 147 147 146 148 150 149 150 148 146 144 143 143 141 141 145 146 142 139 136 137 141 144 147 152 153 150 152 153 150 146 142 140 140 140 138 135 134 132 130 127 125 123 122 120 119 116 112 109 104 97
76 27 2 61 24 298 270 181 157 169 182 197 209 221 228 228 235 230 188 120 100 136 158 144 124 100 105 129 118 114 118 120 123 132 140 147 149 148 147 150 150 148 149 149 146 142 142 145 147 149 150 146 143 143 142 143 147 149 151 155 154 152 153 154 149 144 141 141 142 141 138 135 133 131 129 127 127 126 124 123 120 117 112 109 106 98
78 43 348 64 46 287 274 46 52 175 170 179 208 222 226 213 203 244 230 153 137 132 133 137 131 134 182 136 118 125 131 129 134 140 143 151 153 152 153 154 152 150 148 148 146 144 147 151 154 153 148 143 147 152 150 147 150 152 152 155 156 154 154 151 146 143 143 144 144 142 139 136 134 132 130 129 128 126 125 124 121 118 115 112 109 102
80 83 39 68 44 276 185 64 38 133 148 185 233 238 226 195 162 216 261 185 160 137 129 165 173 159 158 142 128 137 142 139 146 148 146 152 156 155 157 157 154 151 149 149 151 152 154 154 152 149 146 146 153 159 157 151 150 152 155 157 156 153 151 148 145 146 147 148 147 143 140 138 136 133 132 130 129 128 126 124 122 120 117 113 111 106
50 89 72 99 160 277 32 68 45 67 123 215 246 305 56 122 128 208 239 218 204 164 131 148 156 146 152 153 148 153 158 151 151 153 152 155 157 159 160 158 154 150 150 153 158 159 156 149 147 149 151 154 157 158 157 154 151 153 157 158 155 151 149 147 148 151 151 150 148 145 143 141 138 136 134 133 132 130 128 125 123 122 120 116 114 108
49 79 330 202 157 278 19 63 52 51 205 238 251 82 73 68 72 61 287 252 211 171 124 120 138 151 158 159 147 144 144 142 144 153 159 160 160 158 157 158 157 155 157 160 160 160 154 145 144 149 155 157 157 157 155 154 154 156 157 155 151 149 149 150 152 154 153 151 149 148 146 143 140 138 137 135 134 131 128 126 125 125 124 119 114 110
66 93 295 322 109 339 34 77 121 228 258 302 335 41 73 53 48 47 353 305 249 183 144 133 148 160 150 133 130 132 134 136 140 152 160 161 159 156 157 163 165 162 162 161 156 154 154 150 150 153 157 157 156 157 155 153 155 155 152 148 147 149 152 154 154 154 153 152 151 149 146 143 141 139 137 136 135 133 131 129 127 127 127 123 119 116
30 91 357 353 41 69 77 121 161 348 334 334 330 325 97 95 83 89 38 290 276 224 167 148 148 152 140 132 134 135 131 127 128 157 171 166 162 161 161 162 160 156 155 155 154 155 157 155 153 153 154 155 156 159 157 153 153 151 147 148 150 153 155 155 153 153 152 150 148 147 146 144 142 139 138 138 137 135 133 130 128 127 129 128 126 123
239 215 153 103 66 77 78 56 57 57 317 281 270 272 183 118 144 125 99 293 298 337 91 152 148 145 138 135 138 137 131 129 145 181 184 172 162 156 153 149 147 150 151 151 152 155 156 154 151 150 152 153 155 157 154 150 148 147 147 150 150 150 151 152 150 150 149 147 146 147 147 146 144 141 140 140 138 136 134 131 129 129 130 130 130 129
225 233 110 94 75 93 103 108 184 165 234 248 249 260 277 92 109 96 77 292 296 357 12 117 147 145 141 142 148 143 134 140 175 194 182 168 157 149 147 146 147 151 154 154 153 153 153 151 149 149 151 149 148 149 149 147 146 146 148 150 149 146 147 150 149 149 148 148 148 149 148 147 145 144 142 140 138 137 135 133 133 131 128 125 124 122
231 245 89 96 102 143 137 179 243 188 250 256 227 203 179 84 78 92 137 257 287 337 353 47 138 152 150 150 155 152 150 169 189 190 170 154 148 149 150 150 151 152 154 155 154 153 153 152 150 149 149 147 144 145 147 147 146 146 146 148 147 145 147 153 153 151 150 150 150 150 148 147 146 145 143 141 141 140 139 137 137 137 133 127 124 122
281 48 115 133 144 165 161 183 238 242 257 265 219 159 133 75 63 101 197 236 280 321 339 29 116 162 161 156 159 168 182 186 166 148 144 141 143 148 148 147 150 152 153 154 155 154 152 153 153 151 150 148 146 146 147 147 146 146 147 149 148 147 151 156 155 151 149 149 149 148 147 147 146 145 143 142 142 141 140 139 139 141 140 137 135 131
317 8 118 150 139 129 183 187 290 286 268 280 29 85 84 79 83 219 219 238 295 338 351 8 31 169 167 168 177 182 180 159 135 133 140 143 143 143 142 142 146 150 153 154 155 154 151 150 151 149 147 148 148 148 148 148 148 151 154 153 151 151 152 154 152 149 148 146 145 146 147 147 146 145 144 144 143 141 141 143 145 145 143 143 144 144
193 115 202 201 168 115 124 192 139 234 260 323 55 45 56 111 198 227 257 312 348 14 13 7 357 344 169 175 187 174 136 126 129 136 141 141 141 142 145 147 147 149 152 153 155 155 151 149 150 149 148 150 151 151 152 153 155 156 154 150 148 148 150 151 150 148 146 144 144 146 148 148 148 147 147 147 146 144 142 143 146 145 143 145 149 154
200 146 173 224 179 131 163 240 218 230 258 47 86 118 166 174 192 177 42 0 360 13 16 12 353 331 182 170 165 139 127 126 129 134 136 137 140 142 145 148 147 148 151 154 155 156 153 151 151 151 151 154 155 157 160 160 156 151 148 146 146 147 148 149 149 148 146 146 147 148 149 150 149 148 147 147 146 144 142 142 144 145 147 152 158 163
217 161 149 158 28 138 178 201 220 259 332 45 76 121 132 98 62 67 63 41 25 17 8 10 351 335 144 141 132 126 129 134 136 139 141 142 144 145 146 148 148 148 151 154 155 157 156 154 153 154 155 158 160 162 164 161 154 148 146 147 150 150 149 149 150 151 150 150 150 150 150 150 150 148 148 148 149 149 149 148 148 150 153 158 161 165
230 153 141 129 52 47 78 118 37 18 13 39 57 66 66 52 39 45 44 40 40 27 29 34 9 8 65 104 119 126 133 137 137 141 143 141 143 145 144 146 149 150 152 154 156 158 157 155 155 155 155 157 161 162 161 160 156 152 149 152 154 153 153 153 154 154 153 152 152 151 150 150 150 150 150 150 151 151 150 150 152 156 162 168 171 174
322 20 73 124 110 77 334 320 10 10 344 39 61 39 24 37 42 27 23 46 31 14 44 75 61 51 71 90 105 116 129 137 136 138 143 142 144 148 145 146 152 154 155 157 158 158 157 156 157 155 153 154 158 159 158 159 160 157 155 156 157 157 157 158 156 153 152 152 152 153 152 151 150 150 150 150 152 154 157 161 165 167 170 175 176 172
311 348 9 56 114 112 156 236 325 348 330 13 56 35 8 35 41 16 9 43 28 2 22 83 102 99 97 105 115 120 128 137 137 138 143 144 146 148 149 151 155 156 157 159 160 160 158 158 157 155 153 154 157 159 159 159 160 160 159 159 161 161 160 158 155 153 154 154 154 154 153 152 152 153 154 156 158 161 162 165 165 159 154 156 158 154
248 294 331 12 50 64 56 343 355 7 353 5 37 51 24 31 44 22 359 13 38 8 0 35 97 140 138 129 130 132 135 142 144 141 142 146 148 150 152 154 156 156 157 160 162 162 159 158 157 156 156 158 159 160 161 160 160 162 162 162 163 162 158 155 155 156 156 156 155 155 155 156 157 158 158 155 151 149 149 154 157 154 147 143 146 153
348 317 357 63 65 59 247 273 294 95 202 300 320 344 358 27 44 17 340 3 51 11 346 22 57 88 129 135 137 138 139 144 147 142 140 145 148 149 152 154 155 157 158 160 163 163 160 160 160 159 160 161 161 161 161 161 161 162 162 163 163 161 157 156 157 158 158 156 157 157 157 156 155 155 152 146 141 137 134 136 144 153 152 146 142 151
70 319 9 105 143 198 198 209 232 208 176 211 259 288 324 53 54 8 341 51 52 347 340 83 86 75 96 123 136 140 140 141 141 138 137 140 144 148 154 157 158 159 160 160 161 161 161 161 162 161 163 164 163 161 161 161 162 163 163 163 162 160 160 159 159 158 157 158 159 159 156 153 151 150 147 144 143 141 136 131 131 139 149 151 150 153
Height
729 737 736 732 730 729 728 727 727 725 723 724 727 731 733 735 733 723 718 711 708 721 728 726 730 738 746 745 743 745 745 747 752 754 757 758 761 763 764 766 767 768 770 774 776 777 776 777 779 780 782 788 793 797 799 800 801 802 803 807 810 812 813 813 814 815 815 817 819 820 822 823 824 825 826 828 828 829 830 831 833 833 834 836 839 841
728 736 733 726 725 723 724 724 723 723 723 723 724 727 728 730 729 718 713 707 703 717 727 723 727 737 742 742 741 742 746 749 749 752 756 758 762 763 764 766 767 768 770 774 777 779 779 779 780 780 782 787 792 796 799 800 801 802 804 807 810 812 813 813 812 813 813 814 816 818 819 821 822 824 826 827 828 828 829 831 832 834 835 838 840 841
732 732 727 721 719 719 721 722 723 723 723 724 723 727 729 725 723 719 710 702 701 714 725 723 726 737 740 740 740 740 743 746 746 747 751 755 760 764 764 764 766 769 772 774 777 779 780 780 781 781 783 786 791 795 798 800 801 802 804 806 809 811 811 812 812 812 812 813 815 817 818 818 820 823 825 826 827 828 830 832 834 836 837 837 838 838
734 729 721 717 716 718 721 720 723 725 723 723 723 729 732 722 722 726 713 703 701 705 715 723 732 742 743 743 743 741 740 743 746 748 750 753 756 761 762 763 766 769 773 776 778 780 780 781 781 781 783 786 790 795 797 799 801 802 804 806 808 809 810 811 812 812 812 813 815 816 817 819 820 822 824 826 828 829 830 832 833 833 833 834 834 836
727 720 715 714 714 716 721 721 723 728 728 722 719 725 727 719 717 718 709 702 702 703 709 725 749 755 746 747 747 742 742 745 748 751 754 755 756 760 764 764 767 770 773 776 780 782 783 783 782 781 783 786 790 794 796 798 800 802 803 805 807 808 809 811 812 812 813 813 814 815 817 819 821 823 825 827 828 829 830 830 830 830 831 831 833 835
720 713 710 713 714 714 719 721 719 725 730 725 716 715 717 714 713 709 703 705 716 722 713 721 759 773 755 751 751 743 745 750 751 753 755 757 758 761 765 767 768 770 773 776 779 781 783 784 784 783 783 785 789 793 796 798 800 802 803 806 808 809 810 811 812 812 813 813 814 814 814 816 818 822 825 826 827 828 829 830 830 831 832 833 835 837
711 706 706 711 713 714 718 719 713 716 728 728 713 706 709 709 711 711 704 708 724 730 713 707 744 776 772 768 761 747 748 752 752 754 755 756 759 762 765 766 767 769 771 775 778 780 782 784 785 785 784 786 789 792 796 798 800 802 804 806 808 810 811 812 812 812 813 813 813 814 814 815 817 819 823 825 827 828 829 831 832 833 834 835 837 839
702 703 706 708 711 713 716 716 708 707 722 724 706 701 707 706 710 712 706 710 714 714 710 703 724 765 779 772 761 750 752 757 755 755 755 756 759 762 764 764 765 767 769 772 776 779 781 784 785 786 787 787 789 792 795 798 800 802 804 806 808 810 812 812 812 813 814 814 814 815 815 816 818 820 823 826 828 830 831 833 834 835 836 838 839 841
696 701 704 704 709 712 709 708 702 702 715 713 700 699 703 702 705 706 707 712 707 709 722 714 716 755 775 761 751 750 754 759 757 755 755 755 758 760 762 762 762 764 766 769 774 778 780 783 786 787 788 789 791 793 795 797 800 802 804 806 808 810 812 812 812 813 814 815 815 816 816 818 820 822 825 828 830 831 832 834 835 836 837 840 841 842
693 692 693 698 705 705 702 700 696 700 707 703 698 699 698 699 700 700 707 712 710 717 730 718 709 740 770 761 750 754 758 757 754 752 751 752 755 756 757 759 761 762 765 768 771 775 779 782 785 787 789 790 792 793 795 798 800 803 805 806 809 810 812 812 813 814 814 815 816 817 818 819 821 825 827 829 831 832 833 834 835 837 839 841 841 842
687 683 684 688 694 695 694 695 693 695 698 696 700 702 701 700 698 702 705 707 721 732 726 714 703 723 761 766 749 746 745 741 745 749 750 751 752 754 756 757 759 760 762 766 769 773 777 781 784 786 789 790 792 794 796 798 801 803 805 807 809 811 812 812 814 814 815 816 817 818 818 819 822 825 827 828 830 831 832 834 836 838 840 840 841 842
684 684 683 680 683 686 689 693 692 690 692 695 701 705 709 710 709 714 713 713 735 742 721 707 701 712 748 762 744 732 726 725 734 739 743 747 749 752 755 756 757 758 761 764 768 772 775 779 783 786 789 790 792 795 797 799 802 804 806 808 810 811 813 814 814 815 815 815 816 817 818 820 822 824 825 826 828 830 831 834 836 838 840 840 841 842
687 683 679 677 678 680 688 696 696 693 693 696 701 708 721 728 729 734 732 729 738 734 711 700 703 712 729 735 728 724 722 723 726 728 733 740 745 750 753 755 756 758 761 764 767 770 774 778 782 785 788 790 792 794 797 800 802 804 807 808 810 812 814 815 815 815 815 815 815 817 818 819 821 822 823 825 827 829 831 834 837 838 840 840 841 843
695 685 676 679 679 676 682 694 702 701 696 697 701 710 725 732 741 748 742 738 738 725 704 694 704 717 718 716 714 713 714 716 717 721 728 733 739 746 749 751 755 758 761 764 767 770 773 777 781 785 787 790 792 794 797 800 803 805 807 809 810 813 814 815 815 816 815 815 815 816 818 819 820 821 823 825 828 830 832 834 837 839 839 840 842 843
703 697 681 678 679 675 677 683 690 693 694 694 691 700 715 718 729 742 739 738 737 725 708 700 710 718 713 708 705 702 704 709 715 720 726 732 738 743 748 751 754 757 761 764 767 769 773 776 780 784 787 790 792 795 797 800 802 804 807 809 810 813 814 815 816 816 816 816 816 817 818 820 821 822 824 826 828 830 832 835 837 839 840 841 843 843
698 696 676 669 670 671 677 676 674 684 696 693 685 697 709 703 707 721 725 722 724 726 718 711 713 709 699 696 694 699 707 711 717 723 729 736 740 743 749 752 754 757 760 763 767 770 773 776 780 784 787 790 793 795 798 800 802 804 807 809 811 813 815 816 816 816 817 817 818 819 820 821 822 823 825 827 829 831 833 836 838 840 841 842 843 844
693 690 671 668 669 667 674 674 669 682 695 693 693 702 699 688 692 710 722 717 719 734 727 712 713 708 702 705 701 701 710 714 719 725 731 738 741 744 749 751 754 757 759 762 765 769 773 776 780 784 787 790 793 796 798 800 802 804 806 809 811 813 815 817 817 818 818 818 819 820 821 822 823 824 826 827 829 832 835 837 839 840 842 843 844 845
684 688 672 667 675 669 666 672 670 672 680 691 701 698 688 686 690 701 722 728 731 742 731 714 717 717 717 727 724 715 714 717 722 726 733 740 743 747 750 751 754 755 759 763 765 769 773 776 780 784 788 791 793 796 798 800 803 805 807 809 811 813 815 817 818 818 819 819 820 821 821 823 824 825 827 829 831 834 837 839 840 841 842 844 845 846
673 689 680 666 675 674 664 674 684 675 672 682 688 684 688 704 708 705 720 733 739 747 738 721 717 718 720 728 733 730 722 720 724 728 735 740 743 748 751 752 755 756 759 763 766 770 773 776 780 784 788 791 794 796 799 801 804 806 808 810 811 814 815 817 818 819 820 820 821 822 823 825 826 827 829 831 833 836 838 840 841 842 844 845 846 846
665 688 694 675 671 678 676 683 696 692 680 677 679 681 684 696 706 706 711 721 732 744 743 732 724 718 711 709 713 720 720 720 725 730 734 737 740 746 750 753 756 757 760 763 766 770 773 777 780 783 787 790 793 797 799 802 804 806 809 811 812 814 815 817 819 820 821 822 823 824 825 827 828 829 831 833 835 838 839 841 842 844 845 845 846 846
664 682 696 687 677 685 689 687 692 696 690 685 689 692 689 689 694 700 704 705 716 734 740 739 735 718 698 691 695 704 711 713 717 725 730 733 738 745 747 751 755 757 760 763 765 769 772 776 780 783 786 789 793 797 800 802 805 807 810 811 813 816 817 819 820 821 822 823 825 826 827 828 829 830 832 834 837 839 841 843 844 845 845 845 845 846
669 679 692 696 692 694 691 680 679 684 682 684 691 692 691 693 697 711 718 706 702 716 724 731 736 717 692 686 688 693 702 705 707 716 724 729 737 743 746 749 752 755 759 762 765 769 772 776 779 782 786 789 793 797 800 803 805 807 810 812 814 816 818 820 821 822 823 824 826 827 828 829 830 832 834 835 838 840 842 844 845 845 845 845 845 846
664 676 689 696 694 690 683 673 673 676 672 675 683 684 685 689 696 714 725 713 703 707 708 716 728 714 691 685 686 689 696 700 703 710 720 729 735 740 744 748 751 754 757 761 765 769 772 776 779 782 786 790 794 797 800 803 805 807 810 812 815 816 818 820 821 822 824 825 827 828 829 831 832 834 836 837 839 841 843 844 845 845 845 845 846 846
662 676 690 695 690 683 678 672 669 671 673 678 681 680 683 687 690 701 706 703 707 709 708 720 731 716 693 685 688 692 694 698 705 710 718 730 736 739 744 748 751 755 758 761 766 769 773 777 780 783 787 790 794 797 800 803 805 807 809 812 814 816 818 820 822 823 825 826 828 829 831 832 834 836 837 839 840 842 843 844 844 845 845 846 846 846
669 679 688 698 703 699 694 689 683 679 680 683 682 679 682 684 687 694 697 699 708 709 705 719 732 718 695 687 694 700 702 704 708 713 718 727 736 741 744 747 751 756 759 763 767 770 773 777 781 784 788 791 794 797 800 803 805 807 809 812 814 816 819 821 822 824 825 827 829 830 832 834 835 837 838 839 841 842 843 844 844 846 846 847 847 847
672 679 684 698 713 715 712 707 698 690 687 687 682 678 681 684 687 695 702 710 716 709 702 713 726 716 698 694 702 708 712 715 717 720 723 728 736 742 745 748 752 755 759 763 766 770 773 777 781 784 788 791 794 797 800 804 806 808 810 812 815 817 820 821 823 825 826 828 829 831 833 834 836 837 838 839 841 842 843 844 845 846 847 847 848 848
672 676 677 688 699 702 702 696 687 684 690 693 689 682 681 684 686 693 704 712 712 707 706 711 714 711 707 710 713 711 716 723 725 728 732 734 739 743 745 748 751 754 758 762 766 771 774 777 781 785 789 792 795 798 801 804 807 808 811 813 816 818 820 822 823 825 827 828 830 831 833 835 836 838 839 840 841 842 843 845 846 846 847 848 849 850
676 680 678 681 686 684 683 682 679 682 689 693 692 686 683 683 687 696 704 705 701 705 715 713 705 709 716 719 719 715 717 723 727 730 733 736 739 742 745 749 752 756 759 762 766 771 774 778 781 785 789 792 795 799 802 805 808 809 811 814 817 819 820 822 824 825 827 829 830 832 833 835 837 838 839 840 841 842 843 845 846 847 848 849 850 851
679 685 680 681 685 680 675 676 678 682 687 688 688 687 685 684 689 697 700 697 696 705 716 712 704 709 718 720 719 717 716 720 725 727 730 733 737 740 744 750 754 757 760 763 767 770 773 777 781 785 790 792 795 799 802 806 809 810 813 815 817 819 820 822 824 826 828 829 831 833 834 835 837 838 839 840 841 842 844 845 847 848 849 850 851 852
678 685 682 684 689 685 677 674 676 680 685 686 685 685 686 686 688 693 695 693 695 703 707 704 704 712 718 719 719 717 716 719 724 728 731 734 737 739 744 750 754 757 760 763 766 770 774 777 781 785 790 793 796 799 802 806 808 810 812 814 816 818 819 822 824 826 828 830 832 833 834 835 837 838 839 841 842 843 845 846 848 849 850 851 852 854
679 689 687 686 694 692 679 673 675 679 683 687 687 685 686 688 688 689 691 691 695 703 705 701 707 721 722 717 718 720 720 722 728 733 735 737 738 740 745 750 753 757 760 763 766 770 774 778 782 784 788 791 795 797 800 803 806 809 811 813 816 817 819 821 823 825 828 830 832 834 834 835 837 838 840 841 843 844 846 847 849 850 852 853 854 855
682 691 689 689 701 698 680 676 680 680 682 689 692 689 687 690 690 687 688 690 693 702 709 708 713 725 725 719 721 723 722 725 730 733 736 738 738 741 745 749 752 755 760 763 766 769 773 777 781 783 786 789 793 796 799 801 804 808 811 813 816 817 820 821 823 826 828 831 833 834 835 836 837 839 840 842 844 845 847 848 850 851 853 854 855 856
684 692 693 697 705 697 681 680 683 684 693 701 698 694 690 688 688 686 686 687 687 693 705 709 709 716 719 718 723 727 726 728 730 730 734 737 739 742 745 748 752 754 758 762 765 768 770 774 779 782 785 787 790 794 798 801 804 807 810 812 815 817 819 821 823 826 829 831 833 834 835 836 837 839 841 843 844 846 847 849 851 852 853 855 856 857
687 691 695 700 703 696 686 682 686 697 711 709 698 693 691 687 688 689 688 687 685 686 693 699 703 710 715 715 718 723 725 725 726 728 730 732 737 742 746 749 753 756 759 762 764 766 769 772 777 782 784 785 788 792 797 801 805 808 810 812 814 816 818 821 823 827 829 831 833 834 835 837 838 840 841 843 845 846 848 850 851 853 854 855 856 857
689 692 696 697 697 695 688 690 705 718 714 700 691 689 688 685 686 689 688 685 684 684 689 699 707 709 712 712 712 717 721 723 725 728 729 730 733 738 744 749 752 755 758 761 763 766 769 770 775 781 784 786 789 792 796 799 803 807 811 813 814 816 818 821 823 826 829 831 832 834 835 836 838 840 841 843 845 847 848 850 851 853 854 855 856 857
690 694 696 695 695 696 697 704 717 719 702 689 687 686 684 686 688 693 695 689 684 684 686 697 706 705 706 711 713 716 721 723 726 729 729 731 733 735 740 745 748 751 755 757 761 765 768 770 772 777 783 787 790 792 795 798 802 806 810 813 816 818 820 821 823 825 828 830 832 833 835 836 838 839 841 843 845 847 848 850 851 852 853 854 856 857
687 694 696 698 698 700 707 710 709 708 703 696 691 686 686 691 692 698 704 697 687 684 684 691 701 703 704 709 712 715 720 725 733 735 731 731 733 734 737 740 744 750 753 757 761 764 768 771 773 776 781 785 789 792 795 798 801 804 808 812 816 819 821 821 822 825 827 829 831 833 835 836 837 839 841 843 845 846 848 849 851 852 853 855 856 858
686 691 694 701 703 703 710 715 713 717 718 706 693 684 683 687 687 691 703 701 689 685 685 688 695 700 704 710 713 715 720 729 737 736 730 729 731 733 737 741 745 750 753 757 763 766 769 772 775 778 782 785 789 793 795 798 801 804 808 811 814 818 822 823 823 825 827 828 830 833 834 836 838 839 841 843 844 846 848 849 851 852 853 855 856 858
688 690 691 700 706 706 713 720 720 721 716 702 691 683 681 685 684 687 706 709 694 688 689 689 693 697 702 709 712 712 718 730 736 731 725 727 730 731 737 742 746 750 754 756 761 766 770 774 776 780 783 785 789 792 794 797 801 804 808 811 812 814 820 824 825 825 827 829 830 833 834 836 838 839 841 843 845 846 848 849 851 852 854 856 857 859
693 694 695 703 709 708 712 717 716 715 708 695 688 685 683 683 683 698 720 718 698 692 692 690 693 696 697 702 706 709 714 721 723 720 719 723 728 730 734 739 744 749 754 757 761 765 770 774 776 780 783 786 789 791 794 797 801 804 807 811 812 812 817 823 825 825 827 829 831 833 834 836 838 840 842 844 845 847 848 849 851 853 854 856 858 859
700 698 700 705 709 708 711 714 714 712 703 691 686 685 683 685 695 713 724 712 696 694 693 689 693 695 695 698 701 703 704 703 704 710 717 723 728 731 734 739 744 749 754 758 763 766 769 773 776 779 782 785 788 791 794 797 801 805 808 811 813 813 815 821 824 825 827 829 831 833 835 836 838 840 842 844 845 847 848 850 851 853 855 856 858 860
705 703 704 706 709 710 709 710 714 713 700 688 687 684 683 696 713 716 708 698 695 694 691 689 692 692 693 697 697 696 697 696 699 709 717 722 727 732 736 740 745 750 754 758 763 766 769 773 776 779 783 786 789 791 794 797 801 805 808 810 812 813 815 819 823 825 827 829 831 833 835 837 839 841 843 844 845 846 848 850 852 853 855 857 858 860
702 706 710 708 707 711 712 713 718 717 700 687 689 691 691 701 709 704 696 694 693 691 689 691 691 689 690 693 694 694 697 700 705 711 716 721 726 731 736 739 743 749 753 757 762 765 768 772 776 780 783 786 789 792 794 797 801 804 807 809 810 812 815 819 822 825 827 829 831 833 835 837 839 841 843 844 845 846 848 849 851 853 855 857 858 860
697 703 710 707 702 709 717 716 713 709 697 688 692 697 697 696 695 694 694 694 691 690 692 692 691 689 686 687 691 695 699 705 711 715 720 724 727 731 736 740 743 748 753 757 761 765 768 771 775 779 783 786 789 792 794 797 799 802 805 808 810 812 815 818 822 825 827 829 831 833 835 837 839 841 843 844 845 846 848 849 851 853 855 857 858 859
697 695 701 703 701 703 709 709 703 700 695 691 693 695 694 693 691 691 693 695 694 694 693 692 692 690 685 686 692 697 702 708 714 717 721 725 728 731 736 740 744 748 753 758 762 765 768 771 774 778 782 785 788 791 794 796 798 800 804 807 810 812 815 818 822 825 827 829 831 833 836 837 840 841 843 844 845 846 847 849 851 853 855 856 857 858
692 689 694 700 702 702 702 701 700 701 699 694 693 693 693 693 693 692 693 695 696 695 694 693 693 690 687 688 694 699 704 709 714 719 722 725 729 732 736 740 745 749 753 757 761 765 768 771 775 778 781 784 787 790 792 795 797 799 803 806 809 812 815 818 821 824 827 829 831 833 835 837 839 841 843 844 845 846 847 849 850 852 854 855 856 858
693 692 694 698 701 706 707 704 703 706 704 698 695 695 694 694 694 694 695 696 695 694 694 694 694 693 691 693 696 703 708 710 714 720 724 726 730 733 736 740 745 748 752 756 760 764 767 771 774 777 780 784 787 789 792 795 797 799 803 806 809 812 815 818 821 823 826 828 831 833 835 837 839 841 842 844 845 846 847 849 850 852 853 854 855 856
704 701 700 700 701 705 708 706 703 704 703 699 698 697 697 697 696 695 695 695 694 694 695 695 695 695 695 697 700 705 711 714 716 720 724 727 730 733 736 740 744 748 752 756 759 763 766 769 773 776 779 783 786 789 791 794 797 800 802 805 809 812 815 817 820 823 825 828 830 832 834 836 838 840 841 843 844 845 846 848 849 851 852 853 854 855
709 708 705 702 704 709 711 709 706 705 703 701 701 699 698 698 697 696 697 696 696 696 696 696 697 696 697 700 702 705 711 716 718 719 724 728 730 733 736 740 743 747 751 755 759 762 764 768 772 775 779 782 785 788 791 794 796 799 802 805 808 810 813 817 820 822 825 827 829 832 834 836 837 839 840 841 842 844 846 848 849 850 851 853 854 855
708 710 706 704 710 716 717 713 710 708 707 705 703 701 699 698 698 698 698 698 697 698 697 698 698 697 698 701 702 705 710 715 718 721 724 727 730 734 737 740 744 748 751 755 759 762 765 768 771 774 778 782 784 787 791 793 796 799 801 804 807 809 812 816 819 822 824 826 828 831 833 834 836 838 839 840 841 843 845 847 849 850 852 853 854 855
709 711 709 708 710 712 712 709 707 707 706 705 703 701 699 698 699 699 699 699 699 698 698 699 700 700 702 704 704 706 709 714 718 722 725 729 733 735 738 741 744 748 751 754 758 762 765 768 771 774 777 781 783 786 790 793 795 798 800 802 805 808 811 814 817 820 822 825 827 830 831 833 835 836 838 839 841 842 844 846 849 851 852 853 854 855